Beidou DW 38

operational
NORAD ID: 43623 Int'l Des: 2018-072 Owner: CNSA Country: CN Constellation: BeiDou
MEOCIRCULAR

About Beidou DW 38

Description loading...

Live Position

Loading 3D Globe...

Upcoming Passes

Altitude History

Altitude vs Time

uPlot chart will show altitude changes over time

Two-Line Element Set

1 43623U 18072B 26061.01026698 -.00000006 00000-0 00000+0 0 9999
2 43623 56.5324 66.1890 0006344 328.5825 31.4150 1.86230813 50657
Epoch: Mar 2, 2026 • Age: 27 hours

Current Status

Altitude 21517.1 km
Velocity 3.78 km/s
Sub-Earth Point 16.99°N, 124.39°W
Launch Date Sep 19, 2018
Age 7.4 years
Type navigation

Launch Group

Unknown Vehicle • BeiDou Launch 32 • 2 satellites

Technical Details

Classification Payload
Mass 1014.00 kg
Dry Mass 850.00 kg
Total Mass 1014.00 kg
Length 2.20 m
Diameter 1.70 m
Span 10.00 m
Shape Box + 2 Pan
Manufacturer CAST
Bus Type BD-3M/SAR
Phase Status In Orbit
Owner/State CNSA/CN

Large Constellations

Loading constellations...